User: anonymous   Login
Location: La Vergne
(36.0160°N, 86.5820°W)
Time: 01:49:26
(UTC-05:00)
Language:

Cosmos 1703 Rocket - Orbit

View from above orbital plane
View from above orbital plane
View from above satellite
View from above satellite

Ground track
Ground track

The orbit data is extracted from the following two-line orbital elements,

1 16263U 85108B   17205.23023094 +.00000096 +00000-0 +88695-5 0  9994
2 16263 082.5031 079.5767 0019002 223.1177 276.6753 14.82991707709870
Epoch (UTC): 24 July 2017 05:31:31
Eccentricity: 0.0019002
inclination: 82.5031°
perigee height: 606 km
apogee height: 633 km
right ascension of ascending node: 79.5767°
argument of perigee: 223.1177°
revolutions per day: 14.82991707
mean anomaly at epoch: 276.6753°
orbit number at epoch: 70987

The dashed part of the orbit path shows where the satellite is in the earth's shadow,  

DLR